Location: ??????
(55.2000°N, 38.3000°E)
Time: 00:36:41
(UTC+00:00)

Cosmos 2084 - Pass Details

Date: 15 November 2025
Orbit: 529 x 573 km, 62.8° (Epoch: 12 December)

Event Time Altitude Azimuth Distance (km) Brightness Sun altitude
Exits shadow 01:52:04 39° 38° (NE) 825 4.4 -26.4°
Drops below altitude 10° 01:55:31 10° 94° (E) 1,802 6.9 -25.9°
Sets 01:57:48 0° 102° (ESE) 2,685 8.0 -25.6°
